| time (UTC) | temp F | wind direction | speed MPH | gust MPH | rain 1hr in | rain 24hr in | rain mn in | humidity % | barometer mb |
| 20260505151554 | 46 | 284 | 0.0 | 1.0 | 0.01 | 0.19 | 0.12 | 93 | 1016.9 |
| 20260505151054 | 45 | 284 | 0.0 | 1.0 | 0.01 | 0.19 | 0.12 | 93 | 1016.8 |
| 20260505150554 | 45 | 284 | 0.0 | 1.0 | 0.01 | 0.19 | 0.12 | 93 | 1016.8 |
| 20260505140544 | 44 | 284 | 0.0 | 2.0 | 0.01 | 0.21 | 0.11 | 93 | 1016.4 |
| 20260505125039 | 44 | 284 | 1.0 | 2.0 | 0.00 | 0.39 | 0.10 | 93 | 1016.3 |
| 20260505124538 | 44 | 284 | 1.0 | 2.0 | 0.00 | 0.39 | 0.10 | 93 | 1016.3 |
| 20260505124038 | 44 | 284 | 0.0 | 3.0 | 0.00 | 0.39 | 0.10 | 93 | 1016.3 |
| 20260505123537 | 44 | 284 | 0.0 | 3.0 | 0.00 | 0.39 | 0.10 | 93 | 1016.3 |
| 20260505123038 | 44 | 284 | 0.0 | 3.0 | 0.00 | 0.39 | 0.10 | 93 | 1016.3 |
| 20260505122537 | 44 | 263 | 1.0 | 3.0 | 0.00 | 0.39 | 0.10 | 93 | 1016.1 |
| 20260505122036 | 45 | 261 | 1.0 | 3.0 | 0.00 | 0.39 | 0.10 | 93 | 1016.1 |
| 20260505121536 | 45 | 238 | 1.0 | 3.0 | 0.00 | 0.39 | 0.10 | 93 | 1016.2 |
| 20260505121036 | 45 | 238 | 0.0 | 2.0 | 0.00 | 0.39 | 0.10 | 93 | 1016.1 |
| 20260505120536 | 45 | 238 | 0.0 | 3.0 | 0.01 | 0.39 | 0.10 | 93 | 1016.0 |
| 20260505120035 | 45 | 238 | 1.0 | 3.0 | 0.01 | 0.39 | 0.10 | 93 | 1016.0 |
| 20260505115535 | 45 | 239 | 1.0 | 2.0 | 0.01 | 0.44 | 0.10 | 93 | 1016.0 |
| 20260505115035 | 45 | 239 | 0.0 | 2.0 | 0.01 | 0.44 | 0.10 | 93 | 1016.0 |
| 20260505114536 | 45 | 236 | 0.0 | 2.0 | 0.01 | 0.44 | 0.10 | 93 | 1016.0 |
| 20260505114035 | 45 | 236 | 0.0 | 3.0 | 0.01 | 0.44 | 0.10 | 93 | 1016.0 |
| 20260505113546 | 45 | 238 | 1.0 | 3.0 | 0.01 | 0.44 | 0.10 | 93 | 1016.0 |
| 20260505113039 | 45 | 238 | 1.0 | 3.0 | 0.01 | 0.44 | 0.10 | 93 | 1016.0 |
| 20260505112533 | 45 | 238 | 1.0 | 3.0 | 0.01 | 0.44 | 0.10 | 93 | 1016.0 |
| 20260505112033 | 45 | 238 | 1.0 | 4.0 | 0.01 | 0.44 | 0.10 | 93 | 1015.9 |
| 20260505111532 | 45 | 244 | 1.0 | 3.0 | 0.01 | 0.44 | 0.10 | 93 | 1016.0 |
| 20260505111033 | 45 | 246 | 1.0 | 3.0 | 0.01 | 0.43 | 0.09 | 93 | 1016.2 |
| 20260505110533 | 45 | 248 | 1.0 | 3.0 | 0.01 | 0.43 | 0.09 | 93 | 1016.2 |
| 20260505102027 | 45 | 261 | 0.0 | 2.0 | 0.03 | 0.43 | 0.09 | 93 | 1016.1 |
| 20260505101548 | 45 | 261 | 0.0 | 2.0 | 0.03 | 0.43 | 0.09 | 93 | 1016.2 |
| 20260505101029 | 45 | 261 | 1.0 | 3.0 | 0.02 | 0.42 | 0.08 | 93 | 1016.1 |
| 20260505100526 | 45 | 260 | 0.0 | 3.0 | 0.02 | 0.42 | 0.08 | 93 | 1016.1 |
| 20260505100052 | 45 | 250 | 1.0 | 3.0 | 0.02 | 0.42 | 0.08 | 93 | 1016.1 |
| 20260505095527 | 45 | 267 | 1.0 | 3.0 | 0.02 | 0.42 | 0.08 | 92 | 1016.2 |
| 20260505095025 | 45 | 282 | 0.0 | 3.0 | 0.02 | 0.42 | 0.08 | 92 | 1016.3 |
| 20260505094530 | 45 | 241 | 0.0 | 2.0 | 0.01 | 0.41 | 0.07 | 92 | 1016.4 |
| 20260505094025 | 45 | 239 | 0.0 | 3.0 | 0.02 | 0.41 | 0.07 | 92 | 1016.3 |
| 20260505093524 | 45 | 239 | 1.0 | 3.0 | 0.02 | 0.41 | 0.07 | 92 | 1016.2 |
| 20260505093025 | 45 | 240 | 0.0 | 2.0 | 0.02 | 0.41 | 0.07 | 92 | 1016.3 |
| 20260505092522 | 45 | 240 | 1.0 | 3.0 | 0.02 | 0.41 | 0.07 | 92 | 1016.4 |
| 20260505092021 | 45 | 240 | 1.0 | 3.0 | 0.02 | 0.40 | 0.06 | 92 | 1016.4 |
| 20260505091520 | 45 | 240 | 0.0 | 1.0 | 0.02 | 0.40 | 0.06 | 92 | 1016.5 |
| 20260505091020 | 45 | 240 | 0.0 | 2.0 | 0.02 | 0.40 | 0.06 | 92 | 1016.5 |
| 20260505090520 | 45 | 240 | 0.0 | 3.0 | 0.03 | 0.40 | 0.06 | 92 | 1016.5 |
| 20260505090019 | 45 | 240 | 0.0 | 3.0 | 0.03 | 0.40 | 0.06 | 92 | 1016.4 |
| 20260505085519 | 45 | 240 | 1.0 | 2.0 | 0.03 | 0.40 | 0.06 | 92 | 1016.4 |
| 20260505085018 | 45 | 240 | 1.0 | 4.0 | 0.04 | 0.40 | 0.06 | 92 | 1016.5 |
| 20260505084517 | 45 | 238 | 1.0 | 4.0 | 0.04 | 0.40 | 0.06 | 92 | 1016.5 |
| 20260505084016 | 45 | 237 | 1.0 | 4.0 | 0.03 | 0.39 | 0.05 | 92 | 1016.4 |
| 20260505083516 | 45 | 242 | 0.0 | 2.0 | 0.04 | 0.39 | 0.05 | 92 | 1016.6 |
| 20260505083018 | 45 | 242 | 0.0 | 2.0 | 0.04 | 0.39 | 0.05 | 92 | 1016.6 |
| 20260505082515 | 45 | 242 | 0.0 | 2.0 | 0.04 | 0.39 | 0.05 | 92 | 1016.7 |
| 20260505082015 | 45 | 242 | 0.0 | 2.0 | 0.03 | 0.38 | 0.04 | 92 | 1016.6 |
| 20260505081514 | 45 | 242 | 0.0 | 2.0 | 0.03 | 0.38 | 0.04 | 92 | 1016.6 |
| 20260505081014 | 45 | 241 | 0.0 | 2.0 | 0.04 | 0.38 | 0.04 | 92 | 1016.6 |
| 20260505080513 | 45 | 242 | 0.0 | 2.0 | 0.03 | 0.37 | 0.03 | 92 | 1016.6 |
| 20260505080014 | 45 | 242 | 0.0 | 2.0 | 0.03 | 0.37 | 0.03 | 92 | 1016.7 |
| 20260505075513 | 45 | 242 | 0.0 | 2.0 | 0.03 | 0.37 | 0.03 | 92 | 1016.7 |
| 20260505075013 | 45 | 242 | 0.0 | 2.0 | 0.02 | 0.36 | 0.02 | 92 | 1016.8 |
| 20260505074512 | 45 | 242 | 0.0 | 2.0 | 0.02 | 0.36 | 0.02 | 92 | 1016.7 |
| 20260505074012 | 45 | 242 | 0.0 | 4.0 | 0.02 | 0.35 | 0.01 | 92 | 1016.8 |
| 20260505073511 | 45 | 240 | 1.0 | 4.0 | 0.02 | 0.35 | 0.01 | 92 | 1016.7 |
| 20260505073028 | 45 | 239 | 0.0 | 3.0 | 0.02 | 0.35 | 0.01 | 92 | 1016.7 |
| 20260505072509 | 45 | 240 | 0.0 | 2.0 | 0.02 | 0.35 | 0.01 | 92 | 1016.7 |
| 20260505072009 | 45 | 240 | 1.0 | 2.0 | 0.02 | 0.35 | 0.01 | 92 | 1016.6 |
| 20260505071508 | 45 | 240 | 0.0 | 2.0 | 0.02 | 0.35 | 0.01 | 92 | 1016.7 |
| 20260505071007 | 45 | 240 | 1.0 | 3.0 | 0.02 | 0.34 | 0.00 | 92 | 1016.7 |
| 20260505070512 | 45 | 240 | 0.0 | 3.0 | 0.02 | 0.34 | 0.00 | 92 | 1016.6 |
| 20260505070006 | 45 | 240 | 0.0 | 3.0 | 0.02 | 0.34 | 0.34 | 92 | 1016.7 |
| 20260505065506 | 45 | 241 | 1.0 | 3.0 | 0.02 | 0.34 | 0.34 | 92 | 1016.6 |
| 20260505065006 | 45 | 241 | 1.0 | 3.0 | 0.02 | 0.34 | 0.34 | 92 | 1016.6 |
| 20260505064505 | 46 | 242 | 1.0 | 2.0 | 0.02 | 0.34 | 0.34 | 92 | 1016.6 |
| 20260505064005 | 46 | 241 | 1.0 | 4.0 | 0.01 | 0.33 | 0.33 | 92 | 1016.7 |
| 20260505063505 | 46 | 240 | 1.0 | 4.0 | 0.01 | 0.33 | 0.33 | 92 | 1016.6 |
| 20260505063005 | 46 | 240 | 1.0 | 3.0 | 0.01 | 0.33 | 0.33 | 92 | 1016.6 |
| 20260505062505 | 46 | 243 | 1.0 | 3.0 | 0.01 | 0.33 | 0.33 | 92 | 1016.6 |
| 20260505062010 | 46 | 243 | 1.0 | 3.0 | 0.01 | 0.33 | 0.33 | 92 | 1016.6 |
| 20260505061514 | 46 | 243 | 1.0 | 3.0 | 0.01 | 0.33 | 0.33 | 92 | 1016.6 |
| 20260505061004 | 46 | 243 | 1.0 | 3.0 | 0.00 | 0.32 | 0.32 | 92 | 1016.6 |
| 20260505060505 | 46 | 244 | 0.0 | 3.0 | 0.00 | 0.32 | 0.32 | 92 | 1016.7 |
| 20260505060004 | 46 | 244 | 0.0 | 2.0 | 0.00 | 0.32 | 0.32 | 92 | 1016.6 |
| 20260505055504 | 46 | 258 | 0.0 | 3.0 | 0.00 | 0.32 | 0.32 | 92 | 1016.6 |
| 20260505055004 | 46 | 258 | 1.0 | 4.0 | 0.00 | 0.32 | 0.32 | 92 | 1016.6 |
| 20260505054504 | 46 | 249 | 0.0 | 4.0 | 0.00 | 0.32 | 0.32 | 92 | 1016.6 |
| 20260505054005 | 46 | 269 | 0.0 | 3.0 | 0.00 | 0.32 | 0.32 | 92 | 1016.7 |
| 20260505053504 | 46 | 273 | 1.0 | 3.0 | 0.00 | 0.32 | 0.32 | 92 | 1016.6 |
| 20260505053003 | 46 | 248 | 1.0 | 3.0 | 0.00 | 0.32 | 0.32 | 92 | 1016.7 |
| 20260505052502 | 46 | 247 | 1.0 | 3.0 | 0.00 | 0.32 | 0.32 | 92 | 1016.7 |
| 20260505052004 | 46 | 248 | 1.0 | 3.0 | 0.00 | 0.32 | 0.32 | 92 | 1016.8 |
| 20260505051505 | 46 | 246 | 1.0 | 4.0 | 0.00 | 0.32 | 0.32 | 92 | 1016.8 |
| 20260505051002 | 46 | 246 | 1.0 | 4.0 | 0.00 | 0.32 | 0.32 | 92 | 1016.9 |
| 20260505050501 | 47 | 250 | 2.0 | 3.0 | 0.00 | 0.32 | 0.32 | 92 | 1016.9 |
| 20260505041600 | 47 | 261 | 0.0 | 3.0 | 0.00 | 0.32 | 0.32 | 91 | 1016.6 |
| 20260505041100 | 47 | 289 | 1.0 | 7.0 | 0.00 | 0.32 | 0.32 | 91 | 1016.6 |
| 20260505040600 | 47 | 294 | 2.0 | 7.0 | 0.00 | 0.32 | 0.32 | 91 | 1016.5 |
| 20260505040100 | 47 | 286 | 2.0 | 5.0 | 0.00 | 0.32 | 0.32 | 91 | 1016.5 |
| 20260505035559 | 47 | 286 | 2.0 | 5.0 | 0.00 | 0.32 | 0.32 | 91 | 1016.4 |
| 20260505035101 | 47 | 279 | 2.0 | 4.0 | 0.00 | 0.32 | 0.32 | 91 | 1016.4 |
| 20260505034559 | 47 | 280 | 0.0 | 2.0 | 0.00 | 0.32 | 0.32 | 91 | 1016.3 |
| 20260505034059 | 47 | 280 | 0.0 | 1.0 | 0.00 | 0.32 | 0.32 | 91 | 1016.3 |
| 20260505033559 | 47 | 280 | 0.0 | 1.0 | 0.00 | 0.32 | 0.32 | 91 | 1016.3 |
| 20260505033104 | 47 | 280 | 0.0 | 1.0 | 0.00 | 0.32 | 0.32 | 91 | 1016.2 |
| 20260505032559 | 47 | 280 | 0.0 | 2.0 | 0.00 | 0.32 | 0.32 | 91 | 1016.3 |
| 20260505032058 | 47 | 280 | 0.0 | 2.0 | 0.00 | 0.32 | 0.32 | 91 | 1016.3 |
| 20260505031558 | 47 | 280 | 0.0 | 1.0 | 0.00 | 0.32 | 0.32 | 91 | 1016.2 |
| 20260505031058 | 47 | 280 | 0.0 | 1.0 | 0.00 | 0.32 | 0.32 | 91 | 1016.1 |
| 20260505030558 | 47 | 280 | 0.0 | 1.0 | 0.00 | 0.32 | 0.32 | 91 | 1016.1 |
| 20260505030058 | 47 | 280 | 0.0 | 1.0 | 0.00 | 0.32 | 0.32 | 91 | 1016.1 |
| 20260505025558 | 47 | 280 | 0.0 | 1.0 | 0.00 | 0.32 | 0.32 | 91 | 1016.1 |
| 20260505025057 | 47 | 280 | 0.0 | 2.0 | 0.00 | 0.32 | 0.32 | 91 | 1016.0 |
| 20260505024558 | 47 | 280 | 0.0 | 2.0 | 0.00 | 0.32 | 0.32 | 91 | 1016.0 |
| 20260505024057 | 47 | 280 | 0.0 | 2.0 | 0.00 | 0.32 | 0.32 | 91 | 1016.0 |
| 20260505023556 | 48 | 280 | 0.0 | 2.0 | 0.00 | 0.32 | 0.32 | 91 | 1015.9 |
| 20260505023103 | 48 | 281 | 0.0 | 3.0 | 0.00 | 0.32 | 0.32 | 91 | 1015.9 |
| 20260505022557 | 48 | 281 | 0.0 | 4.0 | 0.00 | 0.32 | 0.32 | 91 | 1016.0 |
| 20260505022056 | 48 | 281 | 1.0 | 4.0 | 0.00 | 0.32 | 0.32 | 90 | 1016.1 |
| 20260505021556 | 48 | 292 | 1.0 | 5.0 | 0.00 | 0.32 | 0.32 | 90 | 1016.3 |
| 20260505021055 | 48 | 291 | 1.0 | 5.0 | 0.00 | 0.32 | 0.32 | 90 | 1016.4 |
| 20260505020555 | 48 | 285 | 1.0 | 4.0 | 0.00 | 0.32 | 0.32 | 90 | 1016.3 |
| 20260505020057 | 48 | 282 | 1.0 | 4.0 | 0.00 | 0.32 | 0.32 | 90 | 1016.2 |
| 20260505015555 | 48 | 296 | 1.0 | 4.0 | 0.00 | 0.32 | 0.32 | 90 | 1016.3 |
| 20260505015055 | 48 | 291 | 1.0 | 4.0 | 0.00 | 0.32 | 0.32 | 90 | 1016.4 |
| 20260505014601 | 48 | 290 | 1.0 | 3.0 | 0.00 | 0.32 | 0.32 | 89 | 1016.4 |
| 20260505014055 | 48 | 278 | 1.0 | 4.0 | 0.00 | 0.32 | 0.32 | 89 | 1016.3 |
| 20260505013554 | 49 | 288 | 1.0 | 4.0 | 0.00 | 0.32 | 0.32 | 89 | 1016.4 |
| 20260505013058 | 49 | 277 | 0.0 | 4.0 | 0.00 | 0.32 | 0.32 | 89 | 1016.4 |
| 20260505012555 | 49 | 288 | 0.0 | 5.0 | 0.00 | 0.32 | 0.32 | 88 | 1016.5 |
| 20260505012054 | 49 | 288 | 1.0 | 5.0 | 0.00 | 0.32 | 0.32 | 88 | 1016.6 |
| 20260505011554 | 49 | 290 | 1.0 | 3.0 | 0.00 | 0.32 | 0.32 | 88 | 1016.6 |
| 20260505011053 | 49 | 292 | 0.0 | 3.0 | 0.00 | 0.32 | 0.32 | 88 | 1016.6 |
| 20260505010554 | 49 | 290 | 1.0 | 3.0 | 0.00 | 0.32 | 0.32 | 88 | 1016.6 |
| 20260505010115 | 49 | 290 | 1.0 | 3.0 | 0.00 | 0.32 | 0.32 | 88 | 1016.6 |
| 20260505005553 | 50 | 290 | 0.0 | 4.0 | 0.00 | 0.32 | 0.32 | 87 | 1016.6 |
| 20260505005054 | 50 | 290 | 1.0 | 4.0 | 0.00 | 0.32 | 0.32 | 87 | 1016.7 |
| 20260505004554 | 50 | 290 | 0.0 | 3.0 | 0.00 | 0.32 | 0.32 | 88 | 1016.7 |
| 20260505004053 | 50 | 290 | 0.0 | 3.0 | 0.00 | 0.32 | 0.32 | 87 | 1016.7 |
| 20260505003554 | 50 | 290 | 1.0 | 3.0 | 0.00 | 0.32 | 0.32 | 87 | 1016.8 |
| 20260505003055 | 50 | 290 | 1.0 | 3.0 | 0.00 | 0.32 | 0.32 | 87 | 1016.6 |
| 20260505002552 | 50 | 290 | 0.0 | 3.0 | 0.00 | 0.32 | 0.32 | 87 | 1016.6 |
| 20260505002052 | 50 | 290 | 1.0 | 3.0 | 0.00 | 0.32 | 0.32 | 87 | 1016.6 |
| 20260505001552 | 51 | 296 | 0.0 | 3.0 | 0.00 | 0.32 | 0.32 | 87 | 1016.6 |
| 20260505001053 | 51 | 309 | 0.0 | 3.0 | 0.00 | 0.32 | 0.32 | 87 | 1016.6 |
| 20260505000549 | 51 | 309 | 1.0 | 3.0 | 0.00 | 0.32 | 0.32 | 87 | 1016.6 |
| 20260505000049 | 51 | 273 | 0.0 | 2.0 | 0.00 | 0.32 | 0.32 | 88 | 1016.7 |
| 20260504235548 | 50 | 264 | 0.0 | 2.0 | 0.00 | 0.32 | 0.32 | 88 | 1016.6 |
| 20260504235048 | 50 | 264 | 0.0 | 1.0 | 0.00 | 0.32 | 0.32 | 89 | 1016.7 |
| 20260504234546 | 50 | 260 | 0.0 | 2.0 | 0.00 | 0.32 | 0.32 | 89 | 1016.7 |
| 20260504234046 | 50 | 260 | 0.0 | 1.0 | 0.00 | 0.32 | 0.32 | 90 | 1016.7 |
| 20260504233546 | 50 | 260 | 0.0 | 1.0 | 0.00 | 0.32 | 0.32 | 90 | 1016.7 |
| 20260504233046 | 49 | 260 | 0.0 | 2.0 | 0.00 | 0.32 | 0.32 | 90 | 1016.8 |
| 20260504232547 | 49 | 260 | 0.0 | 3.0 | 0.00 | 0.32 | 0.32 | 90 | 1016.9 |
| 20260504232044 | 49 | 262 | 0.0 | 2.0 | 0.00 | 0.32 | 0.32 | 90 | 1016.8 |
| 20260504231547 | 49 | 262 | 0.0 | 3.0 | 0.00 | 0.32 | 0.32 | 90 | 1016.9 |
| 20260504231044 | 49 | 261 | 1.0 | 3.0 | 0.00 | 0.32 | 0.32 | 90 | 1016.9 |
| 20260504230547 | 49 | 262 | 0.0 | 1.0 | 0.00 | 0.32 | 0.32 | 91 | 1016.9 |
| 20260504230047 | 49 | 262 | 0.0 | 2.0 | 0.00 | 0.32 | 0.32 | 91 | 1016.9 |
| 20260504225544 | 48 | 262 | 1.0 | 2.0 | 0.00 | 0.32 | 0.32 | 91 | 1016.8 |
| 20260504225043 | 48 | 263 | 1.0 | 2.0 | 0.00 | 0.32 | 0.32 | 91 | 1016.8 |
| 20260504224544 | 48 | 263 | 0.0 | 2.0 | 0.00 | 0.32 | 0.32 | 91 | 1016.7 |
| 20260504224043 | 48 | 263 | 0.0 | 2.0 | 0.00 | 0.32 | 0.32 | 91 | 1016.9 |
| 20260504223546 | 48 | 222 | 0.0 | 0.0 | 0.00 | 0.32 | 0.32 | 91 | 1016.9 |
| 20260504223057 | 47 | 222 | 0.0 | 0.0 | 0.00 | 0.32 | 0.32 | 91 | 1016.9 |
| 20260504222545 | 47 | 222 | 0.0 | 0.0 | 0.00 | 0.32 | 0.32 | 91 | 1017.0 |
| 20260504222043 | 47 | 222 | 0.0 | 0.0 | 0.00 | 0.32 | 0.32 | 91 | 1017.1 |
| 20260504221555 | 47 | 222 | 0.0 | 1.0 | 0.00 | 0.32 | 0.32 | 91 | 1017.1 |
| 20260504221043 | 47 | 222 | 0.0 | 1.0 | 0.01 | 0.32 | 0.32 | 91 | 1017.1 |
| 20260504220541 | 46 | 222 | 0.0 | 1.0 | 0.01 | 0.32 | 0.32 | 91 | 1017.2 |
| 20260504220043 | 46 | 222 | 0.0 | 1.0 | 0.01 | 0.32 | 0.32 | 91 | 1017.2 |
| 20260504215541 | 46 | 222 | 0.0 | 1.0 | 0.02 | 0.32 | 0.32 | 91 | 1017.3 |
| 20260504215043 | 46 | 222 | 0.0 | 0.0 | 0.02 | 0.32 | 0.32 | 91 | 1017.2 |
| 20260504214540 | 46 | 222 | 0.0 | 0.0 | 0.03 | 0.32 | 0.32 | 91 | 1017.3 |
| 20260504214041 | 46 | 222 | 0.0 | 0.0 | 0.03 | 0.32 | 0.32 | 91 | 1017.3 |
| 20260504213539 | 46 | 222 | 0.0 | 2.0 | 0.03 | 0.32 | 0.32 | 91 | 1017.2 |
| 20260504213056 | 46 | 222 | 0.0 | 2.0 | 0.03 | 0.32 | 0.32 | 91 | 1017.2 |
| 20260504212539 | 46 | 222 | 1.0 | 4.0 | 0.04 | 0.32 | 0.32 | 91 | 1017.1 |
| 20260504212042 | 46 | 228 | 1.0 | 4.0 | 0.04 | 0.32 | 0.32 | 91 | 1017.2 |
| 20260504211541 | 46 | 230 | 1.0 | 4.0 | 0.04 | 0.32 | 0.32 | 91 | 1017.1 |
| 20260504211038 | 46 | 261 | 0.0 | 2.0 | 0.03 | 0.31 | 0.31 | 91 | 1017.2 |
| 20260504210538 | 46 | 261 | 0.0 | 3.0 | 0.03 | 0.31 | 0.31 | 91 | 1017.2 |
| 20260504210037 | 46 | 259 | 0.0 | 3.0 | 0.03 | 0.31 | 0.31 | 91 | 1017.1 |
| 20260504205540 | 46 | 263 | 0.0 | 2.0 | 0.02 | 0.30 | 0.30 | 91 | 1017.1 |
| 20260504205035 | 46 | 265 | 0.0 | 2.0 | 0.02 | 0.30 | 0.30 | 91 | 1017.0 |
| 20260504204536 | 46 | 270 | 0.0 | 4.0 | 0.01 | 0.28 | 0.28 | 91 | 1016.9 |
| 20260504204035 | 46 | 269 | 1.0 | 4.0 | 0.01 | 0.28 | 0.28 | 91 | 1017.0 |
| 20260504203535 | 46 | 212 | 0.0 | 4.0 | 0.01 | 0.28 | 0.28 | 91 | 1016.9 |
| 20260504203045 | 46 | 236 | 0.0 | 4.0 | 0.01 | 0.28 | 0.28 | 91 | 1016.8 |
| 20260504202534 | 46 | 246 | 1.0 | 2.0 | 0.00 | 0.28 | 0.28 | 91 | 1016.8 |
| 20260504202034 | 46 | 246 | 0.0 | 5.0 | 0.00 | 0.28 | 0.28 | 91 | 1016.7 |
| 20260504201533 | 46 | 262 | 2.0 | 7.0 | 0.00 | 0.28 | 0.28 | 91 | 1016.7 |
| 20260504201033 | 46 | 237 | 1.0 | 7.0 | 0.00 | 0.28 | 0.28 | 91 | 1016.7 |
| 20260504200533 | 46 | 262 | 0.0 | 3.0 | 0.00 | 0.28 | 0.28 | 91 | 1016.8 |
| 20260504200033 | 46 | 247 | 1.0 | 3.0 | 0.00 | 0.28 | 0.28 | 91 | 1016.8 |
| 20260504195532 | 46 | 236 | 1.0 | 8.0 | 0.00 | 0.28 | 0.28 | 91 | 1016.8 |
| 20260504195031 | 46 | 246 | 2.0 | 8.0 | 0.00 | 0.28 | 0.28 | 91 | 1016.8 |
| 20260504194539 | 47 | 265 | 2.0 | 6.0 | 0.00 | 0.28 | 0.28 | 91 | 1016.6 |
| 20260504194031 | 47 | 236 | 1.0 | 6.0 | 0.00 | 0.28 | 0.28 | 91 | 1016.6 |
| 20260504193534 | 47 | 234 | 1.0 | 4.0 | 0.00 | 0.28 | 0.28 | 91 | 1016.6 |
| 20260504193031 | 47 | 238 | 1.0 | 4.0 | 0.00 | 0.28 | 0.28 | 91 | 1016.6 |
| 20260504192530 | 47 | 238 | 1.0 | 3.0 | 0.00 | 0.28 | 0.28 | 91 | 1016.6 |
| 20260504192032 | 47 | 259 | 0.0 | 6.0 | 0.00 | 0.28 | 0.28 | 91 | 1016.6 |
| 20260504191537 | 47 | 299 | 2.0 | 9.0 | 0.00 | 0.28 | 0.28 | 91 | 1016.4 |
| 20260504191029 | 47 | 271 | 2.0 | 8.0 | 0.00 | 0.28 | 0.28 | 91 | 1016.4 |
| 20260504190529 | 47 | 257 | 3.0 | 8.0 | 0.00 | 0.28 | 0.28 | 91 | 1016.4 |
| 20260504190029 | 47 | 292 | 2.0 | 6.0 | 0.00 | 0.28 | 0.28 | 91 | 1016.3 |
| 20260504185530 | 47 | 257 | 2.0 | 5.0 | 0.00 | 0.28 | 0.28 | 91 | 1016.3 |
| 20260504185032 | 47 | 265 | 1.0 | 4.0 | 0.00 | 0.28 | 0.28 | 90 | 1016.3 |
| 20260504184530 | 47 | 290 | 1.0 | 7.0 | 0.00 | 0.28 | 0.28 | 90 | 1016.3 |
| 20260504184033 | 47 | 243 | 3.0 | 8.0 | 0.00 | 0.28 | 0.28 | 90 | 1016.3 |
| 20260504183528 | 47 | 267 | 1.0 | 6.0 | 0.00 | 0.28 | 0.28 | 90 | 1016.4 |
| 20260504183029 | 48 | 290 | 1.0 | 8.0 | 0.00 | 0.28 | 0.28 | 90 | 1016.4 |
| 20260504182527 | 48 | 291 | 3.0 | 8.0 | 0.00 | 0.28 | 0.28 | 89 | 1016.4 |
| 20260504182027 | 49 | 279 | 2.0 | 7.0 | 0.00 | 0.28 | 0.28 | 89 | 1016.5 |
| 20260504181527 | 49 | 302 | 1.0 | 5.0 | 0.00 | 0.28 | 0.28 | 90 | 1016.4 |
| 20260504181029 | 49 | 292 | 2.0 | 5.0 | 0.00 | 0.28 | 0.28 | 90 | 1016.5 |
| 20260504180526 | 49 | 276 | 1.0 | 6.0 | 0.00 | 0.28 | 0.28 | 90 | 1016.4 |
| 20260504180025 | 49 | 329 | 1.0 | 3.0 | 0.00 | 0.28 | 0.28 | 90 | 1016.4 |
| 20260504175528 | 49 | 330 | 0.0 | 3.0 | 0.00 | 0.28 | 0.28 | 90 | 1016.3 |
| 20260504175025 | 49 | 330 | 0.0 | 3.0 | 0.00 | 0.28 | 0.28 | 91 | 1016.3 |
| 20260504174524 | 50 | 328 | 0.0 | 3.0 | 0.00 | 0.28 | 0.28 | 91 | 1016.2 |
| 20260504174023 | 49 | 324 | 0.0 | 3.0 | 0.00 | 0.28 | 0.28 | 91 | 1016.1 |
| 20260504173523 | 49 | 228 | 1.0 | 3.0 | 0.01 | 0.28 | 0.28 | 91 | 1016.0 |
| 20260504173021 | 49 | 229 | 1.0 | 4.0 | 0.01 | 0.28 | 0.28 | 92 | 1015.9 |
| 20260504172521 | 48 | 175 | 0.0 | 2.0 | 0.01 | 0.28 | 0.28 | 92 | 1015.9 |
| 20260504172020 | 48 | 175 | 0.0 | 2.0 | 0.01 | 0.28 | 0.28 | 92 | 1015.8 |
| 20260504171529 | 47 | 175 | 0.0 | 2.0 | 0.01 | 0.28 | 0.28 | 92 | 1015.7 |
| 20260504171019 | 47 | 176 | 1.0 | 2.0 | 0.01 | 0.28 | 0.28 | 92 | 1015.7 |
| 20260504170518 | 46 | 176 | 0.0 | 0.0 | 0.01 | 0.28 | 0.28 | 92 | 1015.7 |